www.pogodaiklimat.ru

Погода и климат >> Архив погоды >> Новая Зеландия >> Окленд


ПОГОДА в Окленде

  • Прогноз погоды в Окленде
  • Монитор погоды в Окленде

АРХИВ ПОГОДЫ в Окленде

Время (UTC), дата Ветер
(напр.,м/с)
 
Видим.   Явления Облачность Т
(С)
Тd
(С)
f
(%)
Тe
(С)
Тes
(С)
Комфортность P
(гПа)
Po
(гПа)
Тmin
(С)
Tmax
(С)
R
(мм)
R24
(мм)
S
(см)
03 10.07 СЗ 6 20 км н/о +15.6 +8.7 63 +14 +14 1016.0 1015.1
06 10.07 С 3 20 км н/о +13.3 +9.5 78 +12 +12 1016.5 1015.6
09 10.07 С 4 20 км н/о +13.3 +10.4 83 +12 +12 1017.0 1016.1
12 10.07 СЗ 4 20 км н/о +11.5 +10.6 94 +9 +9 1017.4 1016.5 +16.0 0.2
15 10.07 С 3 10 км н/о +9.9 +9.8 99 +8 +8 1017.5 1016.6
18 10.07 С 2 200 м н/о +10.0 +10.0 100 +8 +8 1017.8 1016.9 0.2
21 10.07 СВ 2 <100 м н/о +10.4 +10.4 100 +9 +9 1019.2 1018.3
00 11.07 СЗ 3 20 км н/о +15.6 +12.4 81 +15 +15 1019.2 1018.3 +9.0 0.4
03 11.07 ЮЗ 3 20 км н/о +15.8 +12.1 79 +15 +15 1018.4 1017.5
06 11.07 СЗ 3 20 км н/о +13.7 +10.9 83 +13 +13 1018.9 1018.0
09 11.07 С 2 20 км н/о +11.9 +10.6 92 +11 +11 1019.4 1018.5
12 11.07 С 3 10 км н/о +9.9 +9.8 99 +8 +8 1018.8 1017.9 +17.0
15 11.07 В 2 2000 м н/о +8.8 +8.8 100 +7 +7 1017.8 1016.9
18 11.07 СВ 3 10 км н/о +9.0 +9.0 100 +6 +6 1016.5 1015.6 0.2
21 11.07 С 4 10 км н/о +13.3 +13.1 99 +11 +11 1016.1 1015.2
00 12.07 СЗ 5 4000 м н/о +13.4 +13.0 97 +11 +11 1014.7 1013.8 +7.8 6
03 12.07 СЗ 5 20 км н/о +14.4 +12.5 88 +13 +13 1011.4 1010.5
06 12.07 ЮЗ 7 2000 м н/о +12.3 +11.3 94 +9 +9 1012.9 1012.0 7
09 12.07 З 6 10 км н/о +14.4 +12.2 87 +12 +12 1014.5 1013.6
12 12.07 З 3 10 км н/о +12.1 +10.3 89 +10 +10 1016.2 1015.3 +15.5 0.4
15 12.07 З 4 10 км н/о +11.7 +10.3 91 +9 +9 1016.7 1015.8
18 12.07 СЗ 2 10 км н/о +10.8 +9.9 94 +9 +9 1016.9 1016.0
21 12.07 СЗ 4 20 км н/о +13.4 +11.7 89 +12 +12 1018.0 1017.1
00 13.07 З 6 10 км н/о +16.9 +11.8 72 +16 +16 1017.7 1016.8 +9.2 8
03 13.07 З 6 20 км н/о +17.0 +11.0 68 +16 +16 1015.8 1014.9
06 13.07 СЗ 3 20 км н/о +14.8 +11.1 78 +14 +14 1015.5 1014.6
09 13.07 С 3 20 км н/о +14.0 +12.1 88 +13 +13 1015.0 1014.1
12 13.07 С 2 20 км н/о +12.2 +11.4 95 +11 +11 1013.3 1012.4 +17.8
15 13.07 С 5 20 км н/о +13.3 +11.8 91 +11 +11 1010.3 1009.4
18 13.07 С 6 20 км н/о +14.4 +13.0 91 +13 +13 1006.8 1005.9
21 13.07 С 7 20 км н/о +16.1 +13.3 83 +15 +15 1004.3 1003.4
00 14.07 З 8 4000 м н/о +13.0 +11.8 92 +10 +10 1003.0 1002.1 +12.2 13
03 14.07 СЗ 5 20 км н/о +13.4 +10.7 84 +12 +12 1000.1 999.2
06 14.07 З 9 10 км н/о +13.0 +9.4 79 +10 +10 1000.3 999.4 2
09 14.07 С 4 10 км н/о +11.4 +9.0 85 +9 +9 1001.6 1000.7
12 14.07 С 5 20 км н/о +9.8 +8.2 90 +6 +6 1002.2 1001.3 +16.5
15 14.07 С 4 20 км н/о +9.3 +8.5 95 +6 +6 1003.3 1002.4
18 14.07 З 6 10 км н/о +11.6 +8.9 83 +9 +9 1004.4 1003.5 1
21 14.07 З 4 20 км н/о +12.7 +8.8 77 +11 +11 1006.9 1006.0
00 15.07 З 4 20 км н/о +14.9 +7.9 63 +14 +14 1007.9 1007.0 +9.1 3
03 15.07 СЗ 5 20 км н/о +15.5 +8.1 61 +14 +14 1005.9 1005.0
06 15.07 СВ 3 20 км н/о +11.8 +8.6 81 +10 +10 1005.4 1004.5
09 15.07 С 7 20 км н/о +13.4 +9.6 78 +11 +11 1004.1 1003.2
12 15.07 С 9 20 км н/о +14.5 +10.9 79 +12 +12 1001.5 1000.6 +15.9
15 15.07 С 7 10 км н/о +14.5 +12.0 85 +12 +12 998.8 997.9
18 15.07 СЗ 6 20 км н/о +11.8 +10.9 94 +9 +9 996.9 996.0 2
21 15.07 С 4 20 км н/о +12.1 +10.8 92 +10 +10 995.9 995.0
00 16.07 СЗ 3 20 км н/о +14.3 +11.5 83 +13 +13 995.7 994.8 +11.7 3
03 16.07 З 9 20 км н/о +15.2 +10.3 73 +13 +13 995.3 994.4
06 16.07 ЮЗ 7 20 км н/о +11.7 +9.7 88 +9 +9 996.4 995.5 1
09 16.07 СЗ 5 10 км н/о +11.8 +9.0 83 +9 +9 997.3 996.4
12 16.07 СЗ 4 10 км н/о +12.2 +8.3 77 +10 +10 996.8 995.9 +15.9
15 16.07 СЗ 5 10 км н/о +12.9 +10.6 86 +11 +11 995.8 994.9
18 16.07 З 8 10 км н/о +12.9 +8.0 72 +10 +10 996.9 996.0 4
21 16.07 З 10 10 км н/о +12.0 +8.0 76 +8 +8 999.0 998.1
00 17.07 З 11 10 км н/о +15.4 +8.4 63 +13 +13 1000.0 999.1 +10.1 5

 

Местоположение метеостанции Окленд (Новая Зеландия): широта -37.00 долгота 174.80 высота над уровнем моря 7 м.

В архиве по умолчанию представлена погода в Окленде за последнюю неделю. Архивные данные за месяц целиком и за предыдущие месяцы, начиная с января 2011 года, Вы можете получить, выбрав интересующий диапазон дат из раскрывающегося списка и нажав кнопку "Ввод!".


*Определитесь, кто Вы:
робот инопланетянин человек

Внимание! Время в таблицах - всемирное. Для получения местного времени необходимо прибавить поправку, которая равна 12 ч.

Смотрите также архив погоды в соседних городах и на ближайших метеорологических станциях:

Погода на Мокохинау (Новая Зеландия) (125 км)
Погода в Тахароа (Новая Зеландия) (130 км)
Погода в Тауранге (Новая Зеландия) (144 км)
Погода на Пуперуа (Новая Зеландия) (222 км)
Погода на Таупо (Новая Зеландия) (222 км)
Погода в Нью-Плимуте (Новая Зеландия) (230 км)
Погода на Уэйауру (Новая Зеландия) (280 км)
Погода в Хикс-Бей (Новая Зеландия) (316 км)
Погода в Нейпире (Новая Зеландия) (326 км)
Погода в Гисборне (Новая Зеландия) (334 км)

Пояснения к столбцам:

Ветер - указаны скорость ветра в м/с - средняя за 10 мин, порывы в срок и между сроками (в фигурных скобках) и направление, откуда дует ветер: С - северный, СВ - северо-восточный, В - восточный, ЮВ - юго-восточный, Ю - южный, ЮЗ - юго-западный, З - западный, СЗ - северо-западный.
Видимость - горизонтальная дальность видимости в метрах или километрах. При видимости от 1 до 10 км при отсутствии осадков обычно наблюдается дымка, при ухудшении видимости до 1 км и менее - туман. В сухую погоду видимость может ухудшаться дымом, пылью или мглою.
Явления - указаны атмосферные явления, наблюдавшиеся в срок или в последний час перед сроком; фигурными скобками обозначены явления, наблюдавшиеся между сроками (за 1-3 часа до срока); квадратными скобками обозначены град или гололедные отложения с указанием их диаметра в мм.
Облачность - указаны через наклонную черту общая и нижняя облачность в баллах и высота нижней границы облаков в метрах; квадратными скобками обозначены формы облаков: Ci - перистые, Cs - перисто-слоистые, Cc - перисто-кучевые, Ac - высококучевые, As - высокослоистые, Sc - слоисто-кучевые, Ns - слоисто-дождевые, Cu - кучевые, Cb - кучево-дождевые. Подробнее классификацию облаков см. в Атласе облаков (PDF).
T - Температура воздуха - температура, измеренная на высоте 2 м над землей.
Td - Температура точки росы - температура, при понижении до которой содержащийся в воздухе водяной пар достигнет насыщения.
f - Относительная влажность воздуха - влажноcть воздуха, измеренная на высоте 2 м над землей.
Te - Эффективная температура - температура, которую ощущает одетый по сезону человек в тени. Характеристика душности погоды. При расчете учитывается влияние влажности воздуха и скорости ветра на теплоощущения человека.
Tes - Эффективная температура на солнце - температура, которую ощущает человек, с поправкой на солнечный нагрев. Характеристика знойности погоды. Зависит от высоты солнца над горизонтом, облачности и скорости ветра. Ночью, в пасмурную погоду, а также при ветре 12 м/с и более поправка равна нулю.
P - Атмосферное давление - приведенное к уровню моря атмосферное давление.
Po - Атмосферное давление - измеренное на уровне метеостанции атмосферное давление.
Tmin - Минимальная температура - минимум температуры воздуха на высоте 2 м над землей.
Tmax - Максимальная температура - максимум температуры воздуха на высоте 2 м над землей.
R - Количество осадков - Количество выпавших осадков за период времени, мм. При наведении курсора мыши на число - период времени, за который выпало указанное количество осадков.
R24 - Количество осадков - Количество выпавших осадков за 24 часа, мм.
S - Снежный покров - Высота снежного покрова, см. При наведении курсора мыши на число - состояние снежного покрова и степень покрытия местности в баллах.